Theta_e
307 307 307 308 308 309 309 309 308 308 308 308 308 310 311 311 311 313 313 313 313 313 313 312 311 311 311 311 312 313 314 315 316 319 318 315 315 316 317 317 318 318 318 318 316 315 313 312 312 312 312 311 311 311 310 310 308 312 316 312 311 313 310 310 314 308 306 311 307 303 303 301 299 300 300 300 300 299 299 299 299 299 299 299 299 299 299 299
307 307 307 307 308 308 309 309 309 308 308 308 309 310 310 310 310 312 312 312 312 313 313 312 313 312 313 313 313 314 315 316 317 318 315 314 315 316 316 317 317 318 317 316 315 314 314 313 312 312 312 311 310 310 310 310 307 312 317 314 311 313 309 306 309 306 306 310 305 302 302 300 300 300 300 300 300 299 299 299 299 299 299 299 299 299 299 299
307 307 307 308 308 308 309 310 309 309 309 309 309 310 310 310 310 311 311 312 312 312 313 313 313 313 314 314 314 314 315 316 317 315 314 315 316 316 316 316 316 316 315 315 315 314 313 312 312 312 311 309 308 309 308 308 307 307 314 318 311 308 307 306 306 306 306 307 304 302 301 300 300 300 300 301 300 299 300 300 299 299 299 299 299 299 299 299
307 307 307 308 308 308 309 309 309 309 309 309 309 310 310 310 310 310 311 311 312 312 312 313 313 313 314 314 314 314 315 316 314 312 314 315 315 315 315 316 315 315 314 315 314 314 313 312 312 311 309 308 306 308 307 306 308 306 310 316 309 305 307 307 306 306 305 305 303 301 300 300 300 300 300 300 300 300 300 301 300 300 300 299 299 299 299 299
307 307 307 307 308 308 308 308 309 310 310 310 310 310 310 310 310 310 311 311 312 312 312 312 313 313 313 313 314 313 315 316 312 311 314 314 315 315 315 315 314 314 314 314 314 313 313 311 311 310 308 307 306 308 306 304 307 305 304 307 305 305 307 305 305 306 304 303 301 301 301 300 300 301 301 300 301 301 301 301 301 300 300 300 299 299 299 299
307 307 307 308 308 307 308 307 308 310 310 311 310 310 310 310 310 310 311 311 312 312 312 313 313 313 313 313 314 313 315 314 311 311 313 314 314 314 314 314 313 313 313 313 313 313 312 310 310 310 307 304 304 306 305 304 306 306 303 303 304 305 304 304 305 305 303 303 302 301 301 301 301 301 301 301 301 301 301 301 301 300 300 300 300 299 299 299
308 307 308 308 308 307 307 308 308 308 309 310 310 310 310 310 310 311 311 311 311 312 312 313 313 313 312 312 313 313 312 310 310 311 313 313 313 313 313 312 312 313 313 313 313 313 311 310 310 307 305 305 304 303 304 304 305 306 304 302 303 304 303 303 304 303 303 303 302 301 301 301 301 301 300 301 301 301 301 301 300 300 300 300 300 299 299 299
308 308 308 307 308 308 307 308 308 308 308 309 309 309 310 310 311 311 311 311 311 312 313 313 313 312 312 311 312 312 310 309 310 311 312 312 312 312 312 311 312 312 312 312 311 311 310 309 309 307 305 305 305 303 303 305 304 304 304 301 302 303 303 302 303 303 302 302 302 302 301 301 301 300 300 301 302 301 301 301 301 300 300 300 300 300 300 300
309 309 308 308 308 308 308 308 308 308 308 308 309 309 309 310 310 310 310 310 311 312 313 313 312 312 311 311 312 312 308 308 310 311 312 312 311 310 311 311 311 311 311 311 310 310 309 309 308 308 307 303 304 303 302 305 305 303 302 301 301 301 301 302 302 302 302 302 302 302 301 301 300 301 301 302 302 301 301 301 301 301 300 300 300 300 300 300
309 309 308 308 308 308 308 308 308 308 308 309 309 309 310 310 309 309 310 310 311 311 312 312 312 311 311 311 312 310 308 308 310 311 311 310 310 309 310 310 310 310 310 310 309 309 309 309 307 307 306 304 303 303 303 305 305 302 301 301 301 301 302 302 302 302 302 302 302 301 301 301 300 301 302 302 302 301 301 301 301 301 301 300 300 300 300 300
308 308 308 307 308 308 308 308 308 308 308 309 309 309 309 309 309 310 310 310 310 311 311 311 311 311 311 311 311 308 308 309 310 311 310 310 310 309 309 309 309 309 309 309 309 308 308 308 307 307 307 305 303 302 302 302 303 302 302 302 301 301 302 302 302 302 302 302 301 301 301 301 301 302 303 302 302 301 301 301 301 301 301 301 301 300 300 301
308 308 308 308 308 308 308 308 308 308 308 308 309 309 309 310 310 310 310 310 310 311 311 311 311 311 311 311 309 307 307 308 309 309 310 310 310 309 309 309 309 309 309 309 308 307 308 308 308 309 307 305 303 303 303 302 302 302 303 304 302 303 303 302 302 302 302 302 301 301 302 303 304 304 303 302 302 302 301 301 301 301 301 301 301 301 301 301
308 308 307 308 308 308 308 308 308 308 308 309 309 309 309 310 310 310 310 310 310 310 310 310 310 311 311 309 307 307 307 308 308 308 309 309 309 309 309 309 309 308 308 308 308 308 308 308 308 308 305 304 303 303 303 302 302 303 302 303 306 308 305 301 301 302 301 302 301 301 304 307 307 303 302 303 302 302 302 301 301 301 301 301 301 301 301 301
307 307 308 308 308 308 308 308 308 308 309 309 309 309 309 309 310 310 309 310 310 310 310 310 310 311 310 308 306 307 307 307 307 308 308 307 308 308 307 308 308 307 308 308 308 307 307 307 308 307 304 304 302 302 304 302 303 303 301 303 308 310 305 301 301 302 302 302 301 302 305 309 308 303 302 303 302 301 302 301 301 301 301 301 301 301 301 301
308 308 308 308 308 308 308 309 308 309 309 309 309 309 309 309 309 309 309 309 310 309 309 309 310 310 309 307 306 307 307 308 308 307 307 307 307 307 307 308 308 308 308 308 307 306 307 308 308 306 303 304 303 305 307 306 305 304 303 307 309 308 305 303 301 300 302 301 300 302 306 309 306 303 302 302 302 302 302 302 301 301 301 302 301 301 301 301
307 308 308 308 308 308 308 309 309 309 309 308 308 308 308 309 308 309 309 309 309 309 309 309 309 310 309 307 307 307 307 307 307 307 307 307 307 307 307 307 308 307 307 307 307 306 307 308 307 304 304 305 305 310 312 310 311 308 308 309 307 307 306 305 301 299 300 300 300 301 305 309 305 302 303 302 302 302 301 302 301 301 302 301 302 301 301 302
307 307 308 308 308 308 308 309 309 308 309 308 308 308 308 308 308 308 308 308 309 308 309 309 309 309 309 306 307 307 308 308 307 307 307 307 307 307 307 307 307 307 307 307 307 307 308 308 306 304 304 302 302 314 316 310 311 309 310 309 304 304 305 305 304 299 299 300 302 302 304 309 306 302 303 302 302 302 301 302 302 301 301 301 302 302 302 302
308 307 308 308 308 308 308 309 309 309 309 308 308 308 308 308 309 308 308 309 308 309 310 309 309 312 309 306 307 308 308 308 308 307 307 307 307 307 307 307 307 307 307 307 307 308 307 305 305 306 307 304 303 315 315 308 309 308 310 310 305 304 303 305 305 301 300 302 303 304 305 309 307 302 302 302 302 302 302 303 302 302 302 301 302 302 302 302
308 308 307 308 308 308 308 308 309 309 309 309 309 308 309 309 309 309 309 310 309 311 312 310 310 312 309 306 307 308 308 308 308 308 308 308 308 308 308 308 308 308 308 309 307 306 306 308 310 311 311 307 303 307 308 304 306 308 309 310 308 307 305 305 304 300 299 303 305 306 306 308 310 306 303 302 301 301 302 302 302 302 302 302 302 302 302 302
308 308 307 308 308 308 308 308 309 309 309 310 310 310 310 309 310 309 309 309 308 308 309 307 307 308 307 307 307 308 308 308 308 308 308 308 308 307 308 308 307 307 307 309 306 302 305 310 311 309 305 303 302 300 301 300 302 306 309 311 309 308 308 305 303 299 298 304 306 305 306 307 312 308 302 302 301 300 302 302 303 303 302 302 302 302 302 302
308 308 308 308 308 308 308 309 309 309 310 310 310 310 310 309 310 309 308 308 307 307 307 307 307 307 307 308 308 308 308 308 308 308 308 308 307 308 308 308 309 308 302 300 304 303 307 312 306 302 300 299 298 296 298 301 302 306 310 313 309 306 308 304 302 300 298 303 307 304 306 311 314 308 300 301 301 301 304 303 303 304 303 303 302 302 302 302
308 308 309 308 309 309 308 309 309 310 310 309 310 310 310 310 310 309 308 309 308 307 307 307 307 307 307 307 308 308 308 308 308 308 308 308 308 308 306 306 310 309 299 298 308 308 308 309 302 299 298 297 296 296 300 305 307 309 308 310 309 305 306 305 302 303 300 303 309 307 306 310 311 304 299 301 302 302 304 304 303 304 303 303 302 302 302 302
308 309 309 308 309 308 309 309 309 309 309 309 310 310 310 309 308 308 309 310 309 308 308 308 307 307 307 307 307 307 308 308 308 308 308 309 308 307 306 307 312 313 305 306 316 317 310 304 300 298 297 300 304 301 302 308 309 309 307 307 308 305 305 306 303 306 304 301 305 307 306 309 308 303 300 301 302 303 303 303 303 303 303 304 303 303 302 302
308 308 308 309 309 308 310 309 309 310 309 310 311 310 310 308 309 310 309 311 311 310 309 308 308 308 308 308 307 308 308 307 308 308 308 308 307 307 304 305 311 312 306 305 312 315 308 301 298 298 297 302 310 310 308 311 309 308 308 308 308 305 304 306 305 306 305 301 302 305 310 317 313 308 306 302 300 302 303 303 303 303 303 304 303 303 303 302
308 308 308 309 309 309 310 310 310 310 309 310 310 309 309 309 311 310 311 316 314 310 311 309 308 309 308 309 309 308 308 308 308 308 308 308 307 308 304 303 309 309 303 303 309 310 306 300 298 301 304 305 310 314 308 308 311 309 306 303 303 304 304 307 308 307 309 307 303 303 314 324 319 313 311 307 303 303 302 302 303 304 304 304 304 304 304 303
308 308 308 308 309 310 310 311 311 310 311 310 309 310 311 311 314 310 316 327 319 308 310 310 308 309 308 309 309 308 309 308 307 308 308 308 307 306 308 305 304 305 303 303 307 306 303 299 298 304 311 310 311 311 302 303 313 309 303 300 302 303 305 309 309 308 310 309 303 302 311 319 319 316 312 308 308 307 303 301 303 304 304 304 305 305 304 304
308 308 308 309 310 310 311 310 311 311 310 309 310 312 312 313 314 310 317 326 316 307 309 310 310 310 308 308 309 309 309 308 307 307 307 309 307 306 311 309 305 305 301 303 309 304 301 303 303 306 314 316 315 309 301 301 309 307 303 301 304 304 306 308 308 309 310 307 305 307 307 309 315 316 309 305 308 308 306 304 302 304 305 304 305 305 305 304
309 308 308 309 310 310 311 310 310 310 310 310 312 312 312 314 312 313 322 319 308 308 310 309 310 309 308 308 309 308 308 308 308 308 307 307 307 306 309 306 306 306 299 306 315 302 298 307 307 307 314 315 309 304 300 300 305 305 300 299 302 303 305 306 307 311 310 307 311 311 304 307 319 321 311 305 306 309 311 309 304 304 305 304 305 305 305 305
309 309 309 310 310 311 310 310 311 310 310 312 310 310 311 312 309 315 325 315 307 310 310 309 310 309 308 308 308 307 308 308 307 308 307 307 307 307 309 304 302 303 299 305 314 303 299 303 301 302 311 309 302 299 297 300 304 301 297 299 302 303 305 305 306 311 312 312 315 311 303 308 319 323 315 307 307 312 314 310 304 305 307 305 305 306 305 305
309 309 309 310 311 311 309 310 310 309 311 310 309 311 309 312 320 323 320 312 309 310 309 310 309 308 308 308 308 307 306 307 307 307 305 306 305 304 305 303 302 306 306 305 307 302 299 300 298 299 303 301 299 298 297 298 300 299 300 304 305 307 307 307 310 312 314 320 317 308 304 306 313 323 318 310 310 312 312 311 306 305 308 306 306 306 305 305
309 309 309 312 310 310 310 310 310 311 311 310 311 312 309 315 331 329 313 309 311 310 310 310 307 308 312 310 309 308 307 306 304 307 310 309 309 308 306 306 308 313 318 315 308 302 301 303 301 299 299 298 299 301 299 297 298 300 306 307 307 313 310 311 321 317 315 322 315 306 304 304 311 322 317 312 311 305 304 309 307 305 307 307 306 307 305 305
309 309 310 311 310 310 310 310 312 311 310 312 311 313 318 319 320 320 312 308 311 312 312 310 306 309 314 311 310 309 308 308 304 306 310 310 312 311 308 310 312 313 316 315 311 307 306 305 301 298 299 298 301 306 304 301 300 302 309 313 318 326 318 317 328 320 317 319 308 303 304 305 313 319 314 314 314 303 299 302 304 303 305 306 306 306 306 305
309 310 310 311 311 311 310 310 311 310 311 313 309 314 329 327 314 314 314 312 310 308 308 310 307 308 312 313 311 307 306 308 305 304 303 305 312 308 301 301 303 309 313 309 311 314 308 304 303 302 301 297 299 307 309 306 307 308 309 312 321 325 319 321 323 315 316 317 305 300 304 311 316 315 313 314 309 303 301 302 303 304 305 306 306 306 306 306
309 310 310 311 311 310 311 311 310 311 311 310 311 316 323 321 313 311 313 312 308 306 306 308 309 309 310 312 308 305 308 307 304 308 307 308 317 313 306 302 299 308 319 312 310 315 312 308 306 302 302 299 299 302 304 303 307 307 303 306 316 319 316 318 321 318 315 317 311 304 307 317 317 311 310 308 304 303 304 303 303 305 305 305 306 306 306 306
309 310 310 311 311 310 311 311 310 312 310 310 321 324 320 319 317 316 317 311 308 310 307 306 314 319 313 311 308 303 308 308 304 311 314 310 314 314 310 306 301 306 316 312 308 308 310 310 305 300 299 299 300 299 297 301 308 305 300 308 314 313 317 314 309 311 310 313 318 310 309 316 312 307 306 302 302 304 303 304 305 304 305 306 305 306 306 306
309 310 310 310 310 310 311 310 311 312 309 316 327 324 320 320 316 315 315 310 310 312 309 310 318 323 315 310 311 307 307 308 306 310 312 308 309 310 308 307 303 303 309 313 312 309 311 309 303 301 299 297 299 298 295 301 306 304 305 311 305 302 315 315 303 303 305 311 318 311 311 317 310 309 311 308 309 309 304 304 306 305 305 305 306 307 306 307
310 310 310 310 310 310 311 310 311 310 309 318 324 318 316 313 308 310 310 306 308 310 314 318 312 312 316 312 312 313 310 308 307 310 311 307 307 309 309 306 300 299 302 308 311 311 316 312 303 302 303 299 298 299 298 297 300 306 309 306 300 299 309 315 312 316 317 318 321 314 313 318 314 314 318 317 316 315 308 304 304 307 306 305 307 307 307 307
310 310 309 310 310 310 310 310 311 311 310 315 319 314 311 308 304 305 306 304 307 310 319 326 311 307 316 317 313 313 311 309 311 314 313 310 307 307 309 308 302 299 298 301 306 307 310 312 306 302 304 300 296 299 303 299 296 302 304 300 303 309 312 315 318 321 320 317 321 321 316 312 314 318 318 316 316 315 311 305 303 306 307 306 307 307 307 308
309 310 309 310 310 309 310 310 309 310 309 314 323 317 308 306 304 303 305 304 307 311 315 319 313 308 312 315 315 312 309 311 314 314 312 310 308 304 304 306 303 300 298 300 306 305 305 311 310 304 301 299 299 303 309 308 300 299 302 301 305 311 311 312 312 313 317 316 317 324 323 318 319 321 318 315 315 315 313 308 304 305 308 308 308 308 308 308
309 310 309 309 310 310 310 309 309 314 315 314 320 316 305 305 305 302 305 306 305 309 313 316 316 314 311 310 312 311 309 312 314 314 310 309 309 306 301 301 303 302 299 299 303 305 306 310 309 307 301 301 305 305 308 311 306 304 309 307 307 307 304 306 307 306 313 319 317 318 323 328 325 318 317 317 314 309 308 305 303 305 309 309 308 309 309 308
309 309 308 308 310 309 309 310 308 312 319 312 309 309 304 304 304 302 304 305 303 305 309 314 316 316 315 312 311 311 311 313 313 314 311 308 309 308 302 299 301 301 301 302 304 305 308 313 314 311 308 310 310 301 297 299 300 303 308 308 311 313 311 315 313 305 305 313 315 315 319 330 323 309 309 313 308 305 304 302 303 306 309 308 308 309 308 308
309 308 306 307 310 307 309 313 303 302 315 313 306 306 305 304 303 302 303 303 303 303 304 308 310 312 316 314 312 312 313 314 312 311 311 308 307 308 301 298 299 299 303 307 304 300 304 315 321 315 309 309 304 295 293 294 293 297 300 302 308 311 316 325 320 311 307 304 305 308 313 326 321 303 302 306 304 305 306 304 304 307 307 308 308 309 309 309
308 307 306 306 308 307 308 311 306 305 311 307 301 302 304 302 301 303 303 303 304 304 305 307 307 309 310 307 308 312 313 314 310 308 310 308 303 301 298 297 299 299 302 307 305 300 302 312 318 315 313 309 300 294 293 291 292 300 302 300 303 305 311 319 315 313 313 307 307 311 314 328 323 302 301 306 304 306 307 305 305 306 307 308 308 309 309 309
307 307 307 306 307 307 308 312 316 316 308 301 301 303 302 301 301 303 304 303 303 303 307 309 306 305 304 302 306 309 307 310 309 304 306 307 302 297 296 298 299 298 301 305 305 303 305 312 317 318 321 318 312 307 305 300 299 305 305 300 302 304 307 311 308 309 313 312 312 315 320 332 322 303 302 305 304 306 307 307 306 306 307 308 308 309 309 309
308 308 307 306 307 308 308 310 317 320 309 305 306 305 303 303 302 303 303 302 302 302 306 308 303 303 302 300 306 306 301 305 308 304 303 304 300 296 297 298 297 298 301 301 300 301 305 311 316 322 326 324 323 323 318 312 308 307 304 300 302 303 306 310 309 311 316 311 307 314 324 328 318 309 309 308 305 307 308 309 308 307 308 308 308 309 309 309
309 310 308 308 307 307 308 306 309 315 311 310 310 305 305 307 303 301 302 302 302 301 303 304 301 303 305 303 309 311 304 302 305 307 306 305 301 297 296 298 297 298 299 299 298 301 306 309 310 320 331 329 328 323 311 309 311 310 307 304 303 303 305 310 313 317 320 311 309 316 318 317 316 316 315 313 309 307 306 308 309 308 308 308 308 309 308 308
309 311 310 310 309 307 308 305 305 309 310 313 312 306 307 309 304 302 302 301 302 301 302 302 300 305 310 309 312 313 306 303 306 307 306 303 299 296 295 297 297 298 298 297 297 301 310 311 306 310 318 314 312 311 304 304 310 312 311 309 305 303 304 308 314 318 315 312 318 321 311 310 317 317 313 312 309 305 305 306 307 307 308 307 308 308 308 307
309 309 307 309 312 311 310 309 306 305 305 309 309 305 307 309 307 306 304 301 301 301 304 306 304 307 311 310 314 314 308 308 308 306 304 302 299 298 297 296 296 297 298 297 296 300 311 312 304 305 311 306 301 303 303 305 307 307 311 311 308 305 305 307 312 314 312 313 320 318 308 310 314 311 309 309 306 304 306 307 307 307 307 307 307 307 306 305
308 308 306 307 309 308 309 308 306 304 304 306 308 306 308 310 308 306 303 302 304 302 303 309 311 310 306 306 314 318 313 314 313 309 307 305 302 302 304 302 299 296 296 297 296 297 307 312 305 303 309 306 300 300 301 304 306 306 309 311 309 306 305 306 309 310 309 310 312 309 307 308 307 305 306 306 305 305 305 306 308 307 307 307 306 306 305 304
307 309 307 307 307 304 304 304 304 307 306 306 309 307 305 310 311 305 301 305 309 305 302 309 314 308 301 304 316 319 313 313 317 315 309 307 306 306 308 309 303 296 295 297 297 297 302 308 303 303 311 310 303 301 301 303 306 308 310 309 306 304 303 302 303 305 305 307 307 305 305 307 305 303 304 305 305 305 305 306 308 307 307 306 305 305 303 303
308 308 307 309 309 304 303 302 303 309 310 308 311 308 305 309 311 306 303 303 306 307 305 307 309 304 301 307 314 312 305 305 309 309 305 307 310 307 305 305 303 302 300 298 298 301 305 307 303 304 314 316 306 305 308 304 303 307 313 311 304 304 306 305 302 302 305 307 307 305 309 315 310 303 303 305 306 305 305 306 307 307 306 305 304 303 302 302
307 308 306 310 311 304 302 302 303 309 313 309 308 306 305 307 305 306 309 304 300 304 304 302 304 308 309 310 309 306 304 303 303 303 302 304 305 303 301 301 301 303 302 300 301 302 306 314 310 306 314 316 306 306 312 310 310 315 319 314 306 304 307 306 303 303 304 307 309 310 314 317 309 302 304 307 305 305 306 306 306 306 305 304 303 302 302 303
Wind_Speed
12 12 12 13 13 12 12 13 13 13 14 14 14 13 14 16 16 18 20 21 22 21 22 22 22 21 21 21 20 18 14 15 19 20 19 19 15 13 15 13 12 12 9 7 7 7 8 11 13 14 18 22 23 19 15 13 12 9 5 5 4 2 2 3 5 4 4 3 4 4 3 4 5 5 8 6 5 7 6 5 6 5 5 4 5 6 6 7
11 11 11 12 13 13 13 12 12 12 13 14 14 13 14 15 16 18 20 21 21 22 23 23 23 23 23 22 21 20 16 18 23 23 20 15 13 14 14 13 12 10 7 7 7 5 6 11 11 11 18 24 20 16 15 15 16 10 3 5 3 3 2 1 5 5 3 6 8 5 3 4 6 6 5 3 3 5 4 4 5 4 4 4 4 5 5 6
10 10 10 11 13 14 14 12 12 12 12 13 13 13 14 14 15 17 19 20 22 23 23 23 23 23 24 23 22 20 16 21 22 21 18 14 14 13 12 12 10 8 7 7 5 4 7 12 12 13 25 27 19 19 19 14 13 10 5 5 0 4 5 3 5 6 6 10 10 5 4 6 7 5 3 2 2 1 1 3 3 3 3 4 4 5 5 5
9 9 10 11 12 13 14 13 12 12 12 13 13 12 12 13 14 15 17 20 21 21 21 21 22 23 23 22 21 19 19 20 18 19 15 15 13 12 11 10 8 7 6 4 3 5 7 11 14 19 27 23 19 22 19 13 9 7 5 5 4 6 6 4 6 9 10 10 9 7 6 7 5 2 1 2 2 2 3 3 2 2 3 3 3 4 5 5
10 10 11 11 11 13 15 14 13 12 12 12 12 11 11 11 11 13 15 17 18 17 18 18 20 21 20 19 19 19 19 12 11 13 14 14 12 11 10 7 7 6 3 3 4 6 5 11 18 21 21 14 15 17 13 14 15 10 6 7 7 7 5 5 9 11 10 8 8 7 5 4 2 1 0 1 2 1 1 2 2 2 2 2 2 3 5 4
10 10 11 11 12 13 14 14 14 13 12 12 11 10 9 10 10 12 13 14 14 14 15 16 18 17 15 15 15 15 14 7 5 11 14 12 11 9 8 6 7 6 3 4 5 5 6 12 19 19 15 11 14 11 8 11 12 9 6 8 10 10 10 8 10 9 6 6 6 5 3 3 1 0 2 4 4 2 0 2 3 3 3 2 2 3 4 4
10 10 10 11 12 12 12 14 15 14 13 12 11 10 9 9 11 12 13 13 12 12 13 15 15 13 12 12 12 16 19 13 8 12 12 10 9 7 7 7 8 7 4 4 3 4 7 14 22 21 15 11 12 13 17 21 20 14 6 7 13 13 13 10 10 8 5 5 5 3 3 1 1 1 3 4 4 3 2 2 2 3 3 3 3 2 2 2
9 9 9 11 12 11 12 13 14 14 13 12 11 11 10 11 13 12 13 12 10 10 12 14 12 11 10 9 16 23 23 16 12 13 11 9 8 6 7 6 7 6 4 4 4 7 12 20 24 20 14 10 10 12 17 22 20 13 6 7 12 13 13 11 10 8 5 5 4 3 1 2 2 3 5 3 2 3 4 3 2 2 2 2 2 1 1 1
8 8 9 11 12 11 11 12 13 13 12 12 11 12 12 12 12 10 10 10 10 11 12 13 10 9 7 9 21 21 17 14 13 12 9 8 7 6 5 5 6 5 5 7 8 10 11 16 15 15 17 15 13 9 8 9 7 6 9 11 12 12 12 10 8 7 4 3 2 1 2 1 2 4 5 3 3 4 5 4 2 2 1 2 2 1 1 1
9 9 8 11 13 12 11 12 12 11 11 11 11 11 11 11 9 9 10 10 11 11 12 11 9 7 6 12 22 16 11 12 12 8 8 8 8 8 7 7 6 5 7 9 8 7 9 17 21 24 26 19 13 12 10 9 9 14 18 17 15 12 9 7 6 4 3 2 3 2 2 2 2 3 3 3 5 5 5 4 3 3 2 2 2 3 4 4
10 10 9 12 14 12 12 12 12 11 10 9 8 8 9 9 11 12 12 11 11 10 10 9 7 8 12 18 23 15 9 13 10 7 6 4 7 9 10 10 8 7 6 9 12 15 21 25 23 18 16 17 18 19 19 17 18 20 20 16 12 10 8 6 4 3 3 1 4 4 3 3 2 2 2 3 5 6 4 4 3 4 4 3 4 4 5 5
11 11 11 13 15 13 13 12 12 10 8 8 7 8 10 12 14 14 13 13 11 11 10 9 10 14 19 23 27 17 12 13 10 8 5 2 5 6 8 8 8 7 2 11 23 23 19 12 7 9 13 18 14 12 16 18 17 14 11 8 6 6 7 6 3 3 3 1 4 5 3 4 4 3 3 3 5 7 5 5 5 5 5 5 6 6 6 5
11 11 12 14 16 14 14 13 11 9 8 10 11 11 12 13 14 12 11 12 13 15 14 14 17 17 16 20 22 15 14 14 10 8 6 6 7 7 9 7 8 11 9 16 20 12 9 5 8 21 24 17 10 11 15 13 12 8 6 5 4 5 5 5 4 5 3 2 4 3 1 5 6 3 4 4 6 8 7 7 6 6 7 7 7 8 7 6
11 12 14 16 16 16 14 13 11 10 11 13 14 14 13 12 12 10 11 13 16 18 16 16 14 11 11 17 15 15 14 12 9 8 11 12 12 14 15 13 13 15 13 14 12 12 16 15 17 26 23 19 19 19 13 6 6 4 2 3 3 3 2 4 5 6 3 2 4 3 2 5 7 3 4 6 7 8 9 7 7 7 8 8 9 9 8 6
12 13 16 17 17 16 14 13 13 14 15 15 15 16 15 15 15 15 16 17 18 17 13 10 6 8 17 18 13 14 12 10 9 10 14 14 14 16 14 13 13 13 12 13 16 21 22 17 20 26 22 23 22 13 5 4 4 3 1 2 4 3 1 6 5 6 4 3 4 4 1 5 7 4 4 7 8 9 10 8 8 9 9 9 10 10 10 7
12 13 16 18 17 16 15 16 17 17 15 14 14 13 12 14 15 17 17 16 16 13 10 8 9 16 20 13 10 14 12 12 14 14 15 13 13 14 13 12 14 16 18 20 20 19 14 12 21 23 16 14 9 4 5 4 4 4 3 1 3 2 1 4 2 4 5 2 3 4 1 4 3 2 1 6 10 11 11 10 9 10 10 10 10 11 11 9
12 14 17 18 17 17 18 19 18 15 14 13 13 13 13 15 14 14 13 13 13 10 11 15 18 18 15 9 9 13 14 15 15 15 15 15 16 16 16 17 19 20 19 18 14 9 8 10 15 11 9 8 3 4 6 4 3 4 4 3 1 0 0 3 1 4 7 1 1 4 1 5 6 6 5 7 10 13 14 12 10 10 11 11 11 12 11 10
13 15 18 18 18 19 19 19 17 15 15 15 15 16 17 17 15 15 14 13 14 13 13 16 14 10 9 7 9 12 15 15 14 14 14 15 17 17 17 17 17 15 12 10 7 8 10 10 8 4 6 7 5 5 4 1 2 1 2 3 0 1 1 2 2 3 8 3 1 3 3 7 11 11 7 5 10 15 16 13 11 11 11 12 12 12 12 11
14 16 17 17 17 18 19 19 17 16 17 17 17 19 18 17 16 15 14 13 14 12 7 8 9 8 8 10 12 13 13 13 12 13 12 13 14 14 14 13 10 8 7 5 8 12 10 7 7 5 4 4 4 3 4 3 3 5 4 4 3 1 3 4 3 3 5 3 2 2 4 7 10 10 6 4 8 14 16 15 14 13 12 13 13 13 12 11
15 16 16 16 16 17 19 19 18 17 17 17 17 16 15 16 13 12 17 19 21 18 11 14 19 17 16 16 15 14 13 11 10 10 10 10 11 12 10 8 6 9 9 2 5 9 8 6 6 2 2 5 5 2 3 3 3 5 5 4 3 1 3 3 2 4 4 1 3 2 4 8 9 11 9 5 7 13 17 17 16 15 14 14 14 13 13 11
14 15 16 16 16 17 18 18 18 18 16 16 15 10 8 10 7 11 23 26 24 23 20 20 20 19 17 14 13 13 12 10 8 8 7 7 9 7 5 6 6 9 9 3 2 5 7 7 2 2 3 2 2 2 5 4 4 5 4 4 2 1 3 3 2 4 6 2 3 1 5 10 9 9 8 4 7 12 16 18 16 15 13 13 14 14 13 12
14 15 15 16 16 17 18 18 19 18 16 15 10 4 5 10 13 18 24 22 20 21 20 19 18 17 14 12 11 10 9 8 7 6 5 6 5 2 4 8 9 4 7 6 3 4 7 4 2 4 2 4 6 4 5 5 5 4 3 2 2 1 3 4 2 4 6 2 4 4 6 10 9 9 10 7 8 11 12 14 14 14 13 14 14 14 14 13
15 15 14 15 15 16 16 17 17 15 14 11 4 2 10 18 22 23 24 20 17 18 17 17 16 15 13 11 10 8 8 8 8 8 6 3 3 6 7 9 7 3 7 7 4 5 5 0 3 3 3 5 6 5 4 5 4 4 3 2 2 3 2 3 2 5 5 2 2 4 4 8 7 6 8 8 9 11 10 12 13 13 14 14 14 15 16 16
16 15 13 14 15 15 14 14 13 12 11 8 4 11 20 25 25 24 22 16 10 11 15 15 15 14 12 11 9 9 13 13 10 10 9 4 5 8 9 7 7 5 6 5 9 9 4 1 3 2 3 4 4 5 6 5 3 3 2 4 1 3 2 4 4 5 5 2 1 4 4 5 5 2 5 3 4 9 11 12 14 15 14 14 14 16 17 17
17 16 12 12 13 13 12 11 10 10 10 9 13 22 26 23 19 17 14 10 5 6 8 9 10 11 10 9 8 9 13 14 14 12 9 8 7 6 7 7 6 3 3 2 10 9 3 2 2 2 5 5 5 4 5 2 1 3 0 2 1 1 1 4 6 5 4 3 3 5 5 5 5 3 6 4 5 8 10 13 17 18 16 16 16 16 16 17
16 15 12 10 11 11 11 10 10 12 13 16 24 26 21 14 10 8 6 6 3 4 4 4 5 5 6 7 6 8 8 7 12 13 8 8 6 6 6 5 6 4 4 2 7 5 2 3 1 4 6 6 6 4 2 2 3 2 1 1 4 3 1 4 5 3 2 2 3 4 3 4 6 5 6 5 6 9 10 13 19 20 18 18 18 16 15 16
15 15 12 9 10 10 10 11 15 18 19 24 27 19 9 7 5 4 4 6 2 2 2 3 3 2 4 6 4 5 2 1 7 11 9 8 5 5 5 2 4 4 3 4 5 2 2 4 6 5 5 6 6 3 1 2 4 1 1 3 4 3 2 2 3 2 1 2 3 5 4 1 5 5 6 4 4 8 10 12 19 22 22 21 19 17 15 15
16 15 12 12 13 12 13 17 20 20 22 25 20 8 3 4 1 2 4 5 1 1 2 2 4 5 5 7 7 6 4 2 4 6 8 9 4 4 5 2 5 5 1 4 3 1 2 4 4 4 5 5 2 0 1 2 2 1 2 3 2 2 3 2 2 1 1 1 3 6 4 0 5 6 5 4 3 7 9 10 16 22 22 21 21 18 15 14
17 15 15 16 15 15 17 18 17 17 19 18 10 5 5 3 2 3 5 3 1 1 2 1 4 4 4 7 9 9 7 5 4 3 6 8 5 6 9 8 12 11 8 6 5 2 1 2 1 1 4 3 1 1 1 2 2 1 4 3 3 3 3 3 3 1 3 4 2 6 5 2 4 6 5 4 1 6 8 8 12 16 16 18 21 19 16 14
18 17 18 18 15 15 16 15 14 14 14 11 7 6 5 2 2 5 2 1 1 1 0 1 1 2 4 4 7 9 7 5 6 5 7 10 9 12 15 11 11 10 8 10 7 2 1 2 2 3 3 2 3 2 2 2 2 3 3 3 4 3 3 3 2 2 4 3 4 5 4 2 3 6 3 1 3 5 5 6 8 10 10 12 17 17 16 15
19 19 21 19 16 17 17 16 15 12 8 5 5 6 5 1 4 5 1 2 2 0 1 2 2 3 4 4 4 6 5 6 7 6 6 7 8 10 10 6 5 6 5 6 6 2 2 3 2 3 3 1 3 3 3 2 2 3 2 3 2 3 3 3 4 4 4 3 5 4 4 1 1 5 3 4 6 6 5 6 7 10 11 9 10 14 15 15
21 20 21 19 17 18 16 14 13 10 8 6 4 7 5 2 1 1 1 1 1 1 1 1 2 3 4 4 4 4 3 4 8 6 3 2 4 5 3 2 2 4 2 2 3 3 3 2 1 1 2 3 3 2 3 3 3 3 3 4 3 3 4 3 4 3 0 3 2 2 4 1 4 7 6 7 8 7 8 10 12 14 12 9 7 10 13 15
22 21 21 19 18 18 15 11 8 6 5 8 3 5 6 4 2 2 0 1 1 1 1 2 1 2 2 4 3 3 2 2 5 5 2 2 5 3 2 1 2 3 2 2 2 3 2 1 1 1 1 3 2 1 2 2 3 3 2 3 3 2 4 2 3 2 3 4 1 3 3 1 4 5 6 8 9 10 12 12 13 14 12 9 7 9 13 15
23 21 19 18 18 18 16 11 7 4 1 7 4 4 5 1 4 2 1 3 1 1 2 2 2 3 4 3 0 2 2 2 3 3 3 3 4 2 1 1 1 3 4 3 2 2 2 1 2 2 1 4 2 2 2 2 2 1 2 3 3 3 3 1 3 1 3 5 3 4 2 2 2 3 5 9 13 15 13 11 11 12 11 10 10 11 13 15
23 21 17 15 16 18 17 13 10 6 2 6 5 5 3 4 3 2 4 4 2 0 1 2 4 5 4 3 2 0 1 0 2 4 4 3 2 2 1 1 2 2 3 2 2 1 2 3 2 2 2 2 1 0 1 2 2 1 2 3 2 2 4 2 2 4 2 2 3 3 2 4 3 6 9 10 13 12 9 9 10 10 10 11 13 14 14 16
22 19 15 13 14 16 17 15 12 8 4 5 5 3 3 4 2 3 5 4 4 5 4 2 4 5 2 3 3 3 1 0 2 3 2 2 2 2 1 2 1 1 3 3 3 2 1 2 2 2 2 3 2 0 0 1 1 1 2 2 1 3 6 5 1 0 3 2 3 2 3 5 3 5 8 8 8 8 6 7 10 12 13 14 17 17 16 16
21 18 14 13 13 14 15 14 12 9 5 3 4 2 4 2 2 3 3 4 5 6 6 4 1 2 2 1 2 3 1 0 2 2 1 0 1 3 2 1 1 0 1 2 2 3 4 1 1 1 1 2 2 1 1 1 1 2 2 2 1 3 5 4 1 3 5 2 3 3 3 6 3 1 5 8 9 8 9 11 13 13 13 16 18 18 17 18
20 17 14 12 12 12 13 12 10 9 4 3 2 3 2 2 2 3 3 3 5 5 5 4 1 0 3 3 2 3 0 1 1 3 2 1 1 3 2 1 0 1 2 2 1 1 3 2 2 1 1 2 1 1 1 2 2 1 3 3 1 2 1 2 2 1 3 2 4 5 4 3 2 2 5 7 6 7 10 12 14 16 16 18 19 20 19 20
19 15 12 10 10 12 12 10 9 8 4 2 1 2 1 2 2 4 4 3 3 3 3 4 2 2 3 4 3 2 1 2 2 2 2 1 1 1 1 1 2 1 1 1 2 1 1 2 1 1 0 1 2 1 1 0 1 1 2 2 2 3 3 1 2 2 1 0 2 5 5 2 5 5 4 6 7 7 7 8 12 18 21 22 23 23 22 22
17 11 7 9 10 10 11 10 9 7 4 2 4 3 1 2 3 5 6 3 2 1 2 4 4 3 3 3 2 2 1 1 3 2 1 1 1 1 1 2 3 2 1 2 2 1 2 2 1 2 2 1 0 1 2 3 2 1 2 1 1 2 2 1 2 2 2 2 1 1 3 5 6 4 6 7 8 7 7 8 13 20 22 22 23 24 24 23
16 6 4 11 12 11 13 10 5 4 4 1 2 1 1 2 4 5 6 4 2 1 2 4 5 4 4 3 2 3 3 2 2 2 1 2 1 0 1 3 3 3 2 2 2 1 1 2 2 1 1 2 3 2 1 2 1 2 2 1 2 2 3 3 1 2 2 2 3 3 2 7 6 4 6 7 7 9 9 10 15 22 22 22 23 23 23 24
15 4 3 12 13 13 13 6 5 4 4 3 2 2 2 3 4 5 5 3 1 2 2 3 3 3 4 3 2 4 4 2 2 1 1 2 1 1 2 4 4 3 3 2 0 1 1 3 4 1 2 3 3 1 2 1 1 3 1 0 3 3 4 5 2 2 2 2 1 3 1 6 6 6 8 8 8 11 14 13 17 21 22 23 25 24 24 24
12 5 5 12 15 15 11 3 3 3 2 2 3 3 3 3 3 4 4 2 0 1 2 2 1 2 2 2 3 4 3 2 2 2 1 2 1 1 3 4 3 2 3 1 0 1 1 3 3 1 4 3 3 2 1 1 2 3 1 0 2 1 2 4 4 3 3 3 2 2 1 6 6 4 6 7 10 15 17 15 15 20 23 25 26 25 24 24
10 6 6 10 15 16 9 2 2 1 1 1 3 3 3 2 2 3 3 2 1 1 2 1 1 2 2 2 4 3 2 2 1 1 1 2 1 2 3 3 2 2 2 1 2 3 1 1 3 2 4 5 5 4 3 2 1 1 1 1 1 2 5 3 2 3 1 4 5 4 3 7 5 3 5 8 10 16 20 18 16 20 25 27 26 23 23 24
9 5 4 8 12 12 7 3 5 5 2 2 3 2 2 3 2 2 3 3 2 1 2 2 2 4 3 3 4 3 1 1 1 1 1 1 1 2 2 1 1 2 2 1 3 4 2 0 2 4 2 1 1 2 3 3 2 1 1 1 2 3 5 3 2 3 1 3 4 5 5 7 7 7 8 9 9 14 22 24 22 22 25 26 25 22 21 24
8 3 2 5 7 7 3 2 6 7 5 4 4 2 2 2 1 3 4 3 3 3 3 3 4 4 3 3 4 3 2 3 1 2 3 2 1 1 2 2 2 3 3 3 2 2 3 1 2 5 6 5 5 5 4 1 2 2 2 3 4 3 4 4 4 2 4 4 3 6 6 5 12 10 7 9 8 10 18 23 24 25 25 25 24 20 20 23
5 3 3 4 4 3 1 2 7 8 7 8 5 2 5 3 1 2 2 1 3 4 3 2 3 3 2 4 4 2 0 2 3 3 3 2 1 1 2 2 2 2 3 3 2 2 3 1 1 3 4 4 4 4 2 2 2 5 4 5 5 4 4 5 4 5 6 5 4 8 4 2 11 10 8 10 9 10 18 23 23 24 24 25 23 20 20 23
4 3 5 6 4 3 2 5 10 9 7 6 3 2 6 5 3 4 2 1 3 4 2 1 2 3 5 6 4 4 3 2 2 2 2 2 2 3 2 0 0 3 4 2 2 2 4 1 2 2 1 1 1 2 2 0 2 3 5 7 7 7 8 9 8 7 8 6 5 3 5 5 11 10 10 15 14 14 19 23 23 23 24 24 21 20 22 26
5 2 5 8 5 3 3 7 13 13 8 4 2 2 6 8 6 4 2 3 1 3 3 2 5 5 5 4 5 5 5 3 1 3 3 4 3 3 2 1 2 3 3 2 1 1 3 2 2 2 1 3 3 4 2 3 2 2 5 7 8 9 11 11 7 5 7 8 8 2 3 10 12 11 16 23 23 19 19 21 21 22 25 23 19 20 26 30
6 3 6 7 3 3 5 7 14 12 5 2 2 3 6 9 8 4 3 5 3 3 4 4 4 5 4 3 5 3 5 6 4 5 7 6 3 4 3 3 4 3 1 1 1 1 2 1 1 3 2 5 3 4 3 1 3 4 6 6 6 7 8 8 5 2 4 8 9 4 7 12 12 11 16 20 19 16 18 21 21 22 24 20 18 23 29 34
9 5 5 6 3 3 6 7 9 7 2 2 4 4 6 8 9 7 3 1 3 4 5 7 9 7 3 4 4 2 4 5 2 5 12 10 5 6 4 4 8 7 2 1 1 1 3 1 1 4 3 4 2 3 5 2 2 4 8 8 9 7 5 5 4 4 6 5 1 1 4 8 8 6 9 14 14 16 21 22 24 25 21 17 19 27 33 37
13 6 5 5 2 2 6 5 3 4 4 5 6 6 6 9 12 12 5 1 2 2 4 10 13 8 3 4 2 3 1 5 5 9 12 10 9 11 9 8 10 9 5 4 2 1 3 4 2 3 1 5 3 2 3 3 4 4 8 8 13 9 5 4 3 6 8 7 5 4 6 7 5 5 7 11 15 18 20 21 24 24 18 17 23 31 36 37
Wind_Direction
132 126 124 123 120 116 111 107 101 92 90 91 91 95 99 98 100 103 103 103 102 102 101 102 105 108 112 114 112 111 124 132 128 129 108 72 72 91 95 96 88 79 69 56 49 69 96 96 102 114 105 87 76 75 73 60 56 71 75 71 88 114 99 160 181 163 138 142 165 155 115 110 116 111 107 98 91 98 104 107 105 103 106 112 112 112 95 79
138 132 130 129 126 122 117 115 107 98 96 94 94 100 103 102 103 109 110 109 110 110 109 111 112 113 114 112 112 112 120 133 126 107 82 73 96 100 97 95 84 78 63 61 61 66 96 102 115 124 100 81 69 76 79 61 51 54 86 83 91 185 129 154 168 148 127 140 156 150 119 122 129 133 119 100 107 109 112 113 116 126 128 127 120 115 104 86
140 136 135 134 133 129 124 122 113 106 103 100 101 103 104 103 105 113 116 116 117 117 118 118 118 118 116 116 117 114 126 131 107 75 70 87 101 100 99 92 83 82 70 73 73 65 94 106 117 111 93 79 67 78 74 55 45 42 68 81 109 181 108 76 133 124 128 143 145 133 129 132 131 132 109 124 150 178 199 160 156 176 174 151 136 131 120 92
131 132 133 136 138 134 131 126 119 114 108 107 109 107 106 104 106 116 120 120 120 119 121 121 122 122 119 121 121 120 130 120 70 46 70 88 94 97 93 90 86 80 73 87 90 88 102 112 118 104 89 75 62 72 57 38 60 44 51 99 154 154 95 71 120 118 130 139 132 122 125 127 123 119 117 126 111 309 272 195 180 178 180 157 144 139 128 109
124 126 128 132 138 136 132 128 125 122 117 115 115 112 110 106 107 117 123 123 120 119 120 123 125 123 123 125 126 130 129 108 36 45 79 83 89 92 88 93 85 73 76 121 108 95 120 130 120 96 80 64 53 65 44 45 83 69 48 97 120 133 97 96 121 121 131 131 123 116 111 131 130 94 173 226 171 248 301 156 158 140 150 141 133 135 135 134
125 128 131 134 135 135 130 128 130 129 129 125 119 116 111 109 111 117 125 123 119 119 122 126 126 123 125 125 133 142 122 90 18 62 78 82 84 83 90 94 84 80 87 127 117 102 138 134 114 90 76 64 50 63 50 52 96 98 57 78 96 112 111 120 123 118 129 124 121 112 103 136 155 266 270 264 219 226 339 139 153 153 163 165 156 147 148 146
126 129 139 144 138 135 129 128 130 132 137 133 127 123 117 116 115 118 124 121 119 120 125 129 126 123 122 126 139 124 96 75 53 68 80 87 82 82 92 90 92 93 109 137 111 112 146 127 106 92 86 79 68 78 75 72 89 101 90 82 95 107 110 118 119 113 124 119 113 118 130 166 330 266 281 273 232 221 206 162 144 164 180 187 192 177 156 135
136 132 142 152 148 137 130 129 128 130 135 134 134 131 129 127 120 121 124 125 126 124 133 135 130 127 119 135 130 100 73 54 55 75 88 90 85 91 88 86 98 102 134 141 109 131 135 115 102 91 81 85 101 101 87 77 67 70 106 112 101 105 109 113 115 113 114 109 114 138 183 283 295 282 286 269 190 180 185 172 150 172 196 199 201 198 173 132
149 143 144 156 156 141 131 129 124 127 128 130 134 135 138 133 124 123 125 133 136 136 145 139 142 140 119 145 128 92 46 38 60 76 85 86 82 85 92 104 109 115 143 130 124 142 135 111 106 111 108 104 105 94 81 79 46 61 112 115 106 104 109 115 116 108 100 96 101 237 266 293 295 302 288 233 184 178 177 175 170 163 203 219 224 229 238 247
153 151 149 155 156 144 133 128 125 127 125 129 135 139 143 135 125 120 120 131 138 145 150 148 162 147 137 149 124 85 35 55 65 73 80 76 73 78 98 110 107 117 135 132 135 144 129 113 110 112 108 99 88 65 58 88 113 115 107 102 101 105 108 111 113 89 76 73 23 333 275 286 292 303 283 226 188 181 184 183 175 174 193 218 235 241 252 260
148 150 149 152 152 145 136 132 132 131 127 132 136 140 141 134 129 119 115 123 136 151 153 152 156 145 157 139 106 78 59 72 66 71 72 64 78 83 93 99 106 115 128 130 123 117 113 112 111 104 91 92 88 73 78 101 116 115 106 92 78 94 97 80 101 58 38 59 13 351 309 311 302 252 243 228 186 186 198 199 189 188 194 206 225 237 246 258
140 148 150 150 148 145 140 138 138 133 131 131 123 124 128 131 131 121 113 114 126 137 132 129 132 148 150 113 87 80 79 74 68 66 56 76 104 100 95 100 115 104 108 131 121 117 115 113 115 110 107 112 102 79 97 112 113 106 99 86 35 58 67 33 49 22 1 344 349 352 337 318 296 228 221 224 193 198 207 216 213 199 206 217 228 238 245 260
136 147 149 147 146 146 143 142 139 132 129 125 118 121 130 142 142 132 120 115 122 124 121 124 132 153 141 90 76 87 84 75 76 75 74 86 96 102 95 102 120 107 128 135 119 103 101 119 134 118 115 114 106 111 121 117 105 90 70 85 27 17 21 9 25 355 344 343 335 7 18 290 278 232 207 219 200 203 214 223 224 214 218 227 238 249 254 263
131 139 141 141 142 143 143 143 139 132 130 123 119 116 117 135 150 152 134 123 127 127 131 134 138 161 125 88 85 92 85 85 96 96 88 89 99 102 99 107 114 113 129 127 98 81 101 125 128 111 102 102 111 117 113 82 78 79 36 62 52 62 348 334 19 11 21 345 335 48 108 257 274 264 200 211 204 210 223 227 230 229 229 234 243 252 259 262
129 132 134 135 137 139 141 141 137 131 126 119 121 115 101 106 122 131 126 126 133 135 142 140 149 148 107 90 95 96 92 103 111 101 91 96 104 98 96 105 106 103 107 100 94 101 110 125 112 95 94 105 113 111 73 16 33 45 86 356 351 89 289 316 24 43 36 306 335 60 162 260 274 263 207 212 209 214 228 231 232 234 232 236 246 252 260 263
129 130 134 135 134 136 136 134 130 126 121 119 122 117 104 105 113 120 122 130 137 144 155 134 132 133 107 85 98 102 103 104 94 90 93 96 97 92 91 98 100 99 101 100 103 106 111 113 95 87 95 102 100 84 55 31 10 1 89 111 321 71 41 322 38 31 12 302 344 46 214 271 273 228 221 233 219 217 228 232 230 234 234 235 245 252 258 262
131 130 135 134 134 134 132 130 126 122 118 118 119 115 114 112 114 120 124 132 136 142 143 122 120 117 94 84 104 96 95 95 89 93 96 95 95 97 101 103 103 102 104 106 107 106 97 96 95 88 76 66 43 78 63 14 340 336 35 90 275 160 78 321 299 342 3 10 308 13 231 248 265 270 288 264 231 221 227 234 234 236 238 238 243 250 255 259
135 133 134 133 133 134 132 129 124 120 115 114 118 119 115 108 113 118 118 129 127 127 131 118 118 108 74 91 105 92 93 96 98 98 95 99 100 101 104 104 102 100 100 97 79 68 75 82 99 90 36 36 24 58 80 263 183 159 68 97 35 300 235 280 252 327 5 24 326 355 295 267 286 294 293 263 235 226 230 237 239 239 240 239 241 246 252 255
138 137 137 134 134 134 132 129 123 120 116 115 118 119 115 111 114 109 109 124 109 103 118 83 82 105 111 112 103 97 101 103 103 100 100 106 105 105 103 94 89 86 83 68 31 42 62 70 71 64 15 356 354 60 121 170 147 144 145 129 119 210 250 253 251 316 5 5 305 305 281 281 294 294 282 264 242 230 234 239 239 242 240 238 239 243 249 251
137 139 140 136 137 137 134 130 126 126 122 121 121 118 118 113 103 81 83 87 78 77 84 74 81 100 110 110 105 101 100 99 102 107 111 113 115 114 95 70 60 55 53 40 2 28 58 69 51 62 272 297 284 209 130 102 106 118 109 93 107 201 285 281 271 334 9 356 275 251 275 280 276 273 270 274 248 230 234 238 239 243 241 241 240 241 247 247
137 138 140 137 139 140 139 135 133 134 133 134 129 120 128 117 102 97 88 76 69 76 80 80 89 98 100 103 106 104 97 94 105 110 107 117 128 118 54 42 65 47 20 350 2 25 58 79 47 258 228 308 317 168 129 96 79 81 95 89 71 195 268 270 237 327 6 28 259 320 328 288 270 269 266 254 236 229 233 237 241 245 246 246 243 242 245 243
146 142 140 139 141 141 142 140 139 142 143 147 138 113 147 131 121 120 105 85 71 74 78 82 88 90 90 94 98 103 101 89 84 80 94 128 124 62 41 61 73 55 351 5 60 40 48 77 276 281 184 89 49 77 113 96 80 63 72 96 37 288 275 284 277 331 1 30 267 338 343 288 274 273 263 247 234 234 237 240 246 252 252 250 246 246 245 243
158 149 143 146 146 143 144 143 145 150 154 159 149 108 141 130 120 114 104 93 76 69 76 81 80 76 75 78 83 96 97 70 47 42 52 132 93 58 81 72 66 57 360 17 105 98 70 81 293 307 164 114 53 36 66 70 68 52 50 89 296 318 350 293 309 338 341 26 282 304 305 284 299 291 261 248 238 242 243 243 247 249 251 252 247 246 246 244
165 156 148 154 156 151 149 150 154 160 166 178 155 135 134 124 116 107 96 90 75 62 66 68 67 63 59 64 70 83 85 65 40 34 36 76 100 78 83 74 69 66 9 33 95 98 103 273 335 43 115 113 80 32 42 65 34 8 80 104 286 316 346 258 289 335 329 17 360 329 326 303 331 319 247 253 265 253 246 246 249 246 250 255 251 247 245 245
170 165 158 160 167 169 168 169 175 177 178 173 146 136 131 121 111 101 89 81 64 33 45 53 50 49 51 58 69 82 83 66 43 35 41 67 90 98 87 66 65 90 271 34 77 83 74 325 313 82 64 67 92 47 29 100 60 354 69 115 158 208 290 296 320 357 17 18 2 17 13 300 316 309 256 294 332 281 258 255 253 247 248 253 252 250 248 248
175 174 169 169 181 187 186 185 180 173 167 154 144 136 130 125 112 96 80 69 47 334 360 26 19 32 39 39 72 91 79 55 42 39 50 64 72 109 97 48 57 116 201 127 84 95 38 6 53 111 84 66 76 62 359 125 101 40 328 142 141 136 42 349 348 21 57 333 322 39 77 267 316 318 277 309 328 295 281 271 260 252 248 247 248 250 248 249
179 178 176 178 178 174 172 168 160 156 156 151 146 140 133 137 117 80 52 54 33 309 0 5 3 38 33 26 68 104 84 76 56 39 45 60 63 108 103 22 62 91 168 120 77 36 343 16 35 54 75 69 60 50 330 112 98 28 269 118 113 86 54 8 8 39 73 267 313 24 80 216 300 288 280 312 312 298 294 279 267 256 248 245 246 248 246 247
181 178 177 169 157 147 144 146 147 150 154 154 153 157 170 160 177 354 71 82 319 341 49 25 66 71 55 59 68 82 95 109 74 28 37 58 55 94 96 95 115 101 64 117 112 341 346 9 9 23 59 71 75 358 222 133 84 296 191 131 105 100 113 100 70 71 4 29 319 342 25 65 276 277 306 344 325 299 288 271 267 261 252 246 245 247 247 246
181 178 172 162 147 139 140 142 147 154 159 164 178 225 215 199 293 14 82 104 272 74 85 71 90 57 34 66 61 62 76 59 53 35 42 59 56 90 98 101 113 101 50 69 129 174 28 27 354 71 80 90 187 213 167 140 75 149 150 107 58 67 77 66 78 103 26 40 285 308 360 26 279 286 321 5 330 276 272 268 272 274 268 252 247 247 247 246
181 176 169 162 150 145 144 142 146 156 165 184 217 218 193 196 45 63 66 239 200 136 30 5 195 320 357 63 46 38 57 47 41 61 70 74 76 94 103 102 104 97 49 52 81 131 120 82 37 60 83 148 146 93 59 90 109 135 118 60 33 24 29 45 53 87 58 11 263 274 331 26 308 292 278 242 228 230 256 290 297 308 307 271 253 249 247 249
179 175 171 167 158 151 143 135 134 132 132 158 192 180 165 109 69 89 181 222 131 219 2 26 313 356 38 89 59 14 30 31 16 42 70 64 63 78 90 95 78 61 32 34 44 360 25 48 26 63 75 108 115 88 35 55 99 110 80 46 24 337 360 22 355 34 63 313 262 264 307 355 269 276 257 255 259 239 234 258 287 315 325 307 272 256 251 253
178 176 175 174 167 158 147 138 130 114 87 73 131 168 145 75 28 146 238 343 54 246 131 66 328 42 56 66 51 346 3 25 12 38 73 40 47 44 45 151 133 56 11 334 33 11 5 22 353 91 64 48 98 95 11 17 47 64 63 56 46 348 7 16 335 7 100 261 268 311 326 298 228 250 261 271 273 268 262 260 272 290 303 310 288 262 254 254
180 179 179 182 180 172 166 160 144 124 72 40 77 151 100 76 219 214 195 37 40 285 91 89 48 66 73 61 36 329 31 27 352 33 70 57 65 40 352 152 138 100 145 186 82 29 6 310 2 52 22 17 60 110 26 359 33 58 92 79 75 61 42 345 297 331 297 278 300 324 320 306 284 271 241 247 270 289 294 285 275 276 284 291 278 257 252 253
182 182 183 190 192 190 190 189 188 176 52 14 38 116 88 121 212 186 220 239 250 347 43 84 76 53 54 67 257 270 67 34 329 29 32 29 65 53 339 344 4 97 112 118 130 103 121 229 340 42 334 351 24 101 123 137 74 81 166 111 101 134 116 248 253 230 289 293 304 318 301 198 290 289 232 257 286 295 299 294 277 269 272 276 270 258 253 254
182 181 185 193 198 201 200 202 209 207 276 347 27 87 120 216 220 170 200 216 218 59 48 58 75 63 24 354 337 253 129 2 357 47 32 34 129 149 161 256 314 93 121 131 171 112 98 238 268 14 356 18 43 95 112 105 86 191 168 83 65 142 128 115 170 181 205 318 307 301 247 212 243 286 287 295 301 299 296 289 278 270 269 270 272 271 266 265
181 181 184 189 196 200 202 208 213 216 267 350 44 90 196 215 201 172 169 149 153 158 128 84 69 72 7 310 0 9 2 16 39 55 30 35 163 187 189 227 253 93 133 150 171 136 88 266 294 16 21 41 50 265 103 86 175 146 80 73 140 130 115 110 126 190 76 58 295 305 288 292 315 291 299 334 343 334 330 310 290 275 270 272 278 284 284 280
183 185 188 189 193 198 202 208 212 221 255 25 74 200 222 198 187 188 156 119 144 145 117 114 103 107 174 204 299 317 342 41 35 71 169 259 170 186 185 221 220 128 98 127 175 169 137 154 334 51 101 9 31 73 35 41 137 99 98 156 181 97 98 105 82 3 38 43 292 337 304 300 353 307 316 357 360 340 337 335 323 304 289 283 286 294 296 294
187 189 194 196 199 201 202 206 210 216 220 69 76 238 207 165 215 188 157 129 140 123 97 127 153 162 177 170 223 256 158 210 332 68 155 216 144 166 156 130 168 2 8 64 130 189 113 116 310 347 155 306 344 94 16 19 55 103 138 144 115 112 93 37 72 48 21 358 298 317 304 260 219 241 312 340 328 309 317 330 333 330 324 316 311 311 308 303
190 190 193 199 200 199 196 195 197 191 161 103 210 232 175 185 213 172 165 156 144 123 115 162 146 76 167 164 172 192 166 197 179 119 170 185 144 182 167 162 168 135 358 69 129 225 68 102 247 257 178 322 2 55 263 324 32 34 58 15 12 123 137 42 73 134 166 65 287 316 335 273 229 220 229 268 277 282 296 310 320 326 332 333 331 329 324 318
186 182 190 193 183 178 176 172 171 161 129 151 199 189 174 195 180 170 169 153 131 143 173 173 143 122 170 183 175 163 115 149 156 146 215 165 117 241 227 173 156 139 77 56 104 101 38 73 207 299 331 311 322 256 205 178 153 91 54 12 1 70 113 148 63 78 126 137 174 330 328 276 251 210 193 235 260 267 274 286 305 319 329 334 334 335 333 329
180 177 205 189 173 165 162 148 123 105 102 118 174 166 227 170 153 159 167 152 90 64 143 145 134 140 154 163 195 172 114 97 133 125 202 183 118 349 210 156 141 136 116 72 68 91 61 110 142 9 343 215 236 263 163 158 155 143 147 173 159 118 111 122 333 338 85 116 162 151 286 276 260 202 198 230 260 282 295 294 301 316 328 335 340 343 340 337
180 186 206 187 181 173 161 128 46 57 101 126 134 130 154 147 138 147 159 158 84 61 96 112 110 131 149 144 166 162 124 109 154 133 187 200 156 136 161 140 134 137 127 113 357 178 133 98 98 121 235 231 266 309 108 135 107 111 113 137 131 127 114 118 205 248 102 79 135 109 282 272 262 219 218 246 278 298 311 308 306 319 333 340 346 350 347 345
181 182 186 184 180 172 159 103 13 27 56 110 113 105 129 134 129 143 152 154 145 110 86 86 100 118 165 163 138 154 147 138 171 163 168 204 147 113 148 139 133 123 110 125 221 141 111 79 85 310 302 317 325 350 121 198 102 100 318 202 135 148 111 135 169 165 130 165 164 77 286 269 275 242 232 265 293 305 318 323 320 328 341 347 350 352 354 356
168 153 167 175 176 176 173 159 158 162 337 110 88 81 104 98 109 137 157 169 165 157 119 120 149 117 126 119 107 141 171 149 166 126 125 168 126 123 148 133 120 120 102 118 140 144 198 64 98 71 354 345 348 358 335 288 177 170 241 228 189 99 94 118 136 80 85 202 158 126 238 256 266 279 283 293 305 318 331 343 342 338 344 349 351 355 1 6
150 128 153 169 176 184 192 197 158 149 171 132 100 121 106 63 89 127 132 141 135 131 123 117 129 118 109 95 83 72 53 74 150 126 83 97 101 129 139 106 114 135 112 120 132 139 166 149 113 122 116 238 254 276 267 242 211 211 159 193 215 138 121 150 117 77 279 227 152 161 223 261 287 305 317 320 330 335 338 345 347 345 347 349 350 356 4 8
152 130 149 167 187 192 197 213 155 137 158 151 119 168 154 90 127 125 108 126 131 114 102 104 131 117 78 86 91 64 16 16 64 125 124 144 183 158 123 96 98 127 126 132 127 114 118 85 93 142 161 184 191 214 238 140 138 195 183 187 202 170 133 125 111 145 197 162 181 225 219 281 297 300 318 323 330 329 326 333 340 343 348 350 351 357 3 7
161 174 165 154 197 205 140 199 170 147 162 170 153 168 161 141 136 121 105 160 158 139 97 77 146 145 136 145 120 94 331 11 42 101 119 154 159 76 127 116 98 149 156 144 144 107 100 63 49 144 188 209 181 209 289 30 180 196 180 185 194 183 148 139 167 203 161 126 269 256 187 216 278 286 303 304 308 313 311 319 329 335 344 350 353 360 4 3
171 195 184 170 187 194 180 212 190 158 141 154 139 127 151 153 158 161 172 158 154 170 141 66 251 215 181 168 132 126 155 49 45 147 136 155 145 70 75 303 172 180 173 158 188 130 105 152 213 154 246 283 71 320 306 196 218 193 174 185 184 179 181 188 209 199 162 173 244 228 149 213 261 283 292 286 290 300 307 317 326 334 343 349 354 2 1 356
173 158 177 182 191 185 181 196 177 154 130 122 107 140 165 168 176 185 152 110 145 245 177 184 243 211 175 160 115 136 178 153 141 208 175 151 165 126 111 215 222 194 184 157 165 124 117 154 189 157 313 339 360 331 294 179 207 248 215 204 187 187 196 206 225 200 184 236 267 271 260 267 268 265 270 282 292 294 301 318 331 339 345 349 354 356 352 348
191 178 171 171 159 114 125 155 158 149 129 113 143 186 173 166 175 189 152 136 160 213 189 207 212 164 142 122 112 143 204 170 150 199 176 145 155 186 180 184 166 153 173 154 72 62 131 171 167 127 349 322 329 350 354 151 191 230 250 231 190 190 211 227 249 214 199 262 281 287 282 279 274 264 269 284 296 304 314 327 333 336 343 347 348 347 344 342
193 186 175 161 125 95 121 144 150 142 140 194 177 174 178 184 180 158 129 154 167 170 192 184 155 135 85 72 91 313 248 198 189 191 169 151 155 182 185 167 154 144 137 168 131 70 114 111 69 82 28 294 287 359 340 356 146 252 271 243 196 185 203 217 222 200 191 203 224 320 267 256 261 293 303 302 315 330 333 333 331 333 343 350 344 343 341 338
193 186 189 170 138 135 156 159 154 151 183 200 177 165 182 188 174 153 125 287 213 172 200 174 149 130 79 69 47 335 132 134 110 125 141 131 116 120 113 122 143 146 154 148 98 39 112 118 134 95 62 263 276 328 304 16 48 295 274 219 188 190 219 240 255 231 207 170 143 199 229 235 262 315 321 311 324 337 336 332 329 329 340 351 344 341 338 332